When you browse on this site, cookies collect data to enhance your experience and personalize the content and advertising you see.
Visit our Privacy Policy to learn more. By continuing to use the site, you agree to this use of cookies and data.
  • în România
  • Lista ţărilor
  • Pe 7 zile
  • Temperatura apei
  • Meteo pe hartă
  • Widget-uri
  • user-avatar
    Intrare

    Meteo pe oră la Pruszcz Gdański

    Astăzi, 21 August, Miercuri

    Timp Temperatura Precipitaţii Vânt Presiune Umiditate
    00:00 +19°C° 0 mm 2 m/s 765 mmHg 59%
    01:00 +19°C° 0 mm 2 m/s 765 mmHg 63%
    02:00 +18°C° 1.5 mm 2 m/s 765 mmHg 72%
    03:00 +17°C° 1.5 mm 2 m/s 765 mmHg 81%
    04:00 +16°C° 1.5 mm 2 m/s 766 mmHg 90%
    05:00 +16°C° 0.4 mm 2 m/s 766 mmHg 90%
    06:00 +16°C° 0.4 mm 1 m/s 766 mmHg 89%
    07:00 +16°C° 0.4 mm 1 m/s 766 mmHg 88%
    08:00 +16°C° 0.2 mm 1 m/s 766 mmHg 85%
    09:00 +18°C° 0.2 mm 1 m/s 767 mmHg 83%
    10:00 +18°C° 0.2 mm 1 m/s 767 mmHg 80%
    11:00 +19°C° 0.2 mm 1 m/s 767 mmHg 75%
    12:00 +19°C° 0.2 mm 2 m/s 767 mmHg 70%
    13:00 +21°C° 0.2 mm 2 m/s 767 mmHg 65%
    14:00 +21°C° 0.2 mm 2 m/s 767 mmHg 62%
    15:00 +23°C° 0.2 mm 2 m/s 767 mmHg 58%
    16:00 +23°C° 0.2 mm 2 m/s 767 mmHg 54%
    17:00 +21°C° 0 mm 2 m/s 767 mmHg 60%
    18:00 +19°C° 0 mm 3 m/s 768 mmHg 67%
    19:00 +17°C° 0 mm 3 m/s 768 mmHg 73%
    20:00 +17°C° 0 mm 2 m/s 768 mmHg 77%
    21:00 +16°C° 0 mm 2 m/s 768 mmHg 80%
    22:00 +15°C° 0 mm 2 m/s 768 mmHg 83%
    23:00 +15°C° 0 mm 2 m/s 769 mmHg 83%

    Mâine, 22 August, Joi

    Timp Temperatura Precipitaţii Vânt Presiune Umiditate
    00:00 +14°C° 0 mm 2 m/s 769 mmHg 83%
    01:00 +14°C° 0 mm 2 m/s 769 mmHg 83%
    02:00 +14°C° 0 mm 2 m/s 769 mmHg 85%
    03:00 +14°C° 0 mm 2 m/s 769 mmHg 86%
    04:00 +13°C° 0 mm 2 m/s 769 mmHg 88%
    05:00 +15°C° 0 mm 2 m/s 769 mmHg 84%
    06:00 +16°C° 0 mm 2 m/s 770 mmHg 81%
    07:00 +17°C° 0 mm 2 m/s 770 mmHg 77%
    08:00 +19°C° 0 mm 1 m/s 770 mmHg 69%
    09:00 +21°C° 0 mm 1 m/s 770 mmHg 61%
    10:00 +22°C° 0 mm 1 m/s 770 mmHg 52%
    11:00 +23°C° 0 mm 1 m/s 770 mmHg 49%
    12:00 +24°C° 0 mm 1 m/s 770 mmHg 45%
    13:00 +25°C° 0 mm 1 m/s 770 mmHg 41%
    14:00 +25°C° 0 mm 2 m/s 769 mmHg 43%
    15:00 +25°C° 0 mm 2 m/s 769 mmHg 45%
    16:00 +24°C° 0 mm 2 m/s 769 mmHg 47%
    17:00 +23°C° 0 mm 2 m/s 769 mmHg 52%
    18:00 +21°C° 0 mm 2 m/s 769 mmHg 58%
    19:00 +19°C° 0 mm 2 m/s 769 mmHg 63%
    20:00 +19°C° 0 mm 2 m/s 769 mmHg 65%
    21:00 +18°C° 0 mm 2 m/s 769 mmHg 67%
    22:00 +17°C° 0 mm 2 m/s 769 mmHg 69%
    23:00 +17°C° 0 mm 2 m/s 769 mmHg 69%

    Poimâine, 23 August, Vineri

    Timp Temperatura Precipitaţii Vânt Presiune Umiditate
    00:00 +17°C° 0 mm 2 m/s 769 mmHg 70%
    01:00 +16°C° 0 mm 3 m/s 769 mmHg 71%
    02:00 +16°C° 0 mm 3 m/s 769 mmHg 73%
    03:00 +16°C° 0 mm 3 m/s 769 mmHg 75%
    04:00 +14°C° 0 mm 3 m/s 769 mmHg 77%
    05:00 +17°C° 0 mm 3 m/s 769 mmHg 74%
    06:00 +18°C° 0 mm 3 m/s 769 mmHg 72%
    07:00 +19°C° 0 mm 3 m/s 769 mmHg 70%
    08:00 +21°C° 0 mm 3 m/s 769 mmHg 63%
    09:00 +22°C° 0 mm 3 m/s 769 mmHg 57%
    10:00 +25°C° 0 mm 3 m/s 769 mmHg 50%
    11:00 +26°C° 0 mm 3 m/s 769 mmHg 47%
    12:00 +26°C° 0 mm 3 m/s 769 mmHg 44%
    13:00 +27°C° 0 mm 2 m/s 769 mmHg 41%
    14:00 +27°C° 0 mm 2 m/s 769 mmHg 41%
    15:00 +27°C° 0 mm 3 m/s 768 mmHg 41%
    16:00 +27°C° 0 mm 3 m/s 768 mmHg 41%
    17:00 +25°C° 0 mm 3 m/s 768 mmHg 47%
    18:00 +22°C° 0 mm 3 m/s 768 mmHg 53%
    19:00 +20°C° 0 mm 3 m/s 768 mmHg 59%
    20:00 +20°C° 0 mm 3 m/s 768 mmHg 60%
    21:00 +19°C° 0 mm 2 m/s 768 mmHg 62%
    22:00 +18°C° 0 mm 2 m/s 768 mmHg 63%
    23:00 +18°C° 0 mm 2 m/s 768 mmHg 65%

    24 August, Sâmbătă

    Timp Temperatura Precipitaţii Vânt Presiune Umiditate
    00:00 +17°C° 0 mm 2 m/s 768 mmHg 67%
    01:00 +17°C° 0 mm 2 m/s 768 mmHg 68%
    02:00 +17°C° 0 mm 2 m/s 767 mmHg 70%
    03:00 +16°C° 0 mm 2 m/s 767 mmHg 71%
    04:00 +16°C° 0 mm 2 m/s 767 mmHg 73%
    05:00 +17°C° 0 mm 2 m/s 767 mmHg 70%
    06:00 +18°C° 0 mm 2 m/s 767 mmHg 68%
    07:00 +19°C° 0 mm 2 m/s 767 mmHg 65%
    08:00 +21°C° 0 mm 2 m/s 767 mmHg 59%
    09:00 +24°C° 0 mm 2 m/s 767 mmHg 53%
    10:00 +25°C° 0 mm 2 m/s 767 mmHg 48%
    11:00 +26°C° 0 mm 2 m/s 767 mmHg 45%
    12:00 +26°C° 0 mm 2 m/s 767 mmHg 42%
    13:00 +27°C° 0 mm 2 m/s 766 mmHg 39%
    14:00 +27°C° 0 mm 2 m/s 766 mmHg 40%
    15:00 +27°C° 0 mm 3 m/s 766 mmHg 42%
    16:00 +27°C° 0 mm 3 m/s 766 mmHg 43%
    17:00 +25°C° 0 mm 3 m/s 766 mmHg 50%
    18:00 +22°C° 0 mm 3 m/s 766 mmHg 57%
    19:00 +20°C° 0 mm 3 m/s 766 mmHg 64%
    20:00 +19°C° 0 mm 2 m/s 766 mmHg 66%
    21:00 +19°C° 0 mm 2 m/s 766 mmHg 69%
    22:00 +18°C° 0 mm 2 m/s 766 mmHg 72%
    23:00 +17°C° 0 mm 2 m/s 766 mmHg 73%

    25 August, Duminică

    Timp Temperatura Precipitaţii Vânt Presiune Umiditate
    00:00 +18°C° 0 mm 1 m/s 766 mmHg 74%
    01:00 +18°C° 0 mm 1 m/s 766 mmHg 75%
    02:00 +16°C° 0 mm 1 m/s 766 mmHg 74%
    03:00 +16°C° 0 mm 1 m/s 766 mmHg 74%
    04:00 +16°C° 0 mm 1 m/s 766 mmHg 73%
    05:00 +18°C° 0 mm 1 m/s 766 mmHg 70%
    06:00 +19°C° 0 mm 1 m/s 766 mmHg 67%
    07:00 +19°C° 0 mm 2 m/s 766 mmHg 64%
    08:00 +21°C° 0 mm 2 m/s 766 mmHg 59%
    09:00 +22°C° 0 mm 3 m/s 766 mmHg 54%
    10:00 +25°C° 0 mm 4 m/s 767 mmHg 49%
    11:00 +26°C° 0 mm 4 m/s 766 mmHg 47%
    12:00 +26°C° 0 mm 4 m/s 766 mmHg 45%
    13:00 +27°C° 0 mm 4 m/s 766 mmHg 43%
    14:00 +27°C° 0 mm 4 m/s 766 mmHg 45%
    15:00 +27°C° 0 mm 5 m/s 765 mmHg 46%
    16:00 +27°C° 0 mm 5 m/s 765 mmHg 48%
    17:00 +25°C° 0 mm 4 m/s 765 mmHg 55%
    18:00 +22°C° 0 mm 4 m/s 765 mmHg 62%
    19:00 +21°C° 0 mm 4 m/s 765 mmHg 69%
    20:00 +20°C° 0 mm 4 m/s 765 mmHg 71%
    21:00 +19°C° 0 mm 3 m/s 765 mmHg 74%
    22:00 +18°C° 0 mm 3 m/s 765 mmHg 76%
    23:00 +18°C° 0 mm 3 m/s 765 mmHg 77%

    26 August, Luni

    Timp Temperatura Precipitaţii Vânt Presiune Umiditate
    00:00 +17°C° 0 mm 3 m/s 765 mmHg 78%
    01:00 +17°C° 0 mm 3 m/s 765 mmHg 78%
    02:00 +16°C° 0 mm 3 m/s 764 mmHg 80%
    03:00 +16°C° 0 mm 3 m/s 764 mmHg 81%
    04:00 +16°C° 0 mm 3 m/s 764 mmHg 82%
    05:00 +17°C° 0 mm 3 m/s 763 mmHg 78%
    06:00 +18°C° 0 mm 3 m/s 763 mmHg 75%
    07:00 +19°C° 0 mm 4 m/s 763 mmHg 71%
    08:00 +21°C° 0 mm 4 m/s 763 mmHg 67%
    09:00 +23°C° 0 mm 4 m/s 763 mmHg 62%
    10:00 +26°C° 0 mm 4 m/s 763 mmHg 58%
    11:00 +27°C° 0 mm 4 m/s 762 mmHg 55%
    12:00 +28°C° 0 mm 5 m/s 762 mmHg 53%
    13:00 +29°C° 0 mm 5 m/s 761 mmHg 50%
    14:00 +29°C° 0 mm 5 m/s 761 mmHg 50%
    15:00 +29°C° 0 mm 5 m/s 760 mmHg 50%
    16:00 +29°C° 0 mm 5 m/s 759 mmHg 50%
    17:00 +28°C° 0 mm 4 m/s 759 mmHg 56%
    18:00 +27°C° 0 mm 4 m/s 759 mmHg 63%
    19:00 +25°C° 0 mm 4 m/s 759 mmHg 70%
    20:00 +24°C° 0.4 mm 3 m/s 759 mmHg 74%
    21:00 +24°C° 0.4 mm 3 m/s 759 mmHg 78%
    22:00 +22°C° 0.4 mm 3 m/s 759 mmHg 82%
    23:00 +22°C° 0.3 mm 3 m/s 758 mmHg 84%
    Arată mai mult